Other Surface Observations
Issued by NWS

Home | Current Version | Previous Version | Text Only | Print | Product List | Glossary On
Versions: 1 2 3 4 5 6 7 8 9 10 11 12 13 14 15 16 17 18 19 20 21 22 23 24 25 26 27 28 29 30 31 32 33 34 35 36 37 38 39 40 41 42 43 44 45 46 47 48 49 50
717
SXUS52 KTAE 231606
OSOTAE
OSOTAE
North Florida/South Alabama/Southwest Georgia Weather Roundup
National Weather Service Tallahassee Florida
1100 AM EST THU NOV 23 2017

Note: "fair" indicates few or no clouds below 12,000 feet with no
significant weather and/or obstructions to visibility.

!FLZ017-115-028-034-025-231700
...North Florida...

CITY           SKY/WX    TMP DP  RH WIND       PRES   REMARKS
TALLAHASSEE    CLOUDY    60  58  92 N6        29.99R
APALACHICOLA   CLOUDY    60  58  92 NE13      29.97S
PERRY          CLOUDY    62  61  96 NE6       29.97R
CROSS CITY     RAIN      61  61  99 NE9       29.98F FOG
JACKSONVILLE   LGT RAIN  63  62  97 NE13      29.97F FOG
$$

!FLZ112-006-005-002-011-231700
...Florida Panhandle...

CITY           SKY/WX    TMP DP  RH WIND       PRES   REMARKS
MARIANNA       CLOUDY    62  48  60 N6        29.99F
BONIFAY        NOT AVBL
PANAMA CITY NW FAIR      64  49  57 N7        29.98F
TYNDALL AFB    PTSUNNY   63  52  67 NE6       29.98F
TYND DRONE APT PTSUNNY   63  52  67 NE8       29.97F
DE FUNIAK SPR  CLOUDY    55  41  58 N6        30.02F
EGLIN AFB      MOSUNNY   61  43  51 N9        30.00F
DESTIN         SUNNY     62  43  49 N9        30.00F
HURLBURT       NOT AVBL
CRESTVIEW      SUNNY     58  40  51 N3        30.04F
PENSACOLA      SUNNY     57  37  47 N9        30.02F
$$

!ALZ063-066-231700
...South Alabama...

CITY           SKY/WX    TMP DP  RH WIND       PRES   REMARKS
DOTHAN         CLOUDY    57  43  59 N3        30.05S
OZARK CAIRNS   CLOUDY    54  41  60 N3        30.02S
FT RUCKER HELI CLOUDY    51  41  67 N5        30.02F
RUCKER HELI 3    N/A     51  40  65 CALM      30.02S
RUCKER HELI 2  CLOUDY    53  41  63 CALM      30.01F
FLORALA APT    SUNNY     57  40  52 N3        30.05F
ANDALUSIA      SUNNY     58  38  47 CALM      30.03F
TROY           SUNNY     55  40  56 NE6       30.04F
EUFALA         PTSUNNY   55  43  63 CALM      30.02F
MOBILE         MOSUNNY   53  32  44 N10       30.07F
$$

!GAZ120>161-231700
...Southwest and South Central Georgia...

CITY           SKY/WX    TMP DP  RH WIND       PRES   REMARKS
THOMASVILLE    DRIZZLE   59  59 100 NE6       30.01S
BAINBRIDGE     CLOUDY    64  55  72 E8        30.00S
MOODY AFB      LGT RAIN  59  59 100 NE8       29.98F
VALDOSTA       LGT RAIN  60  59  96 NE10      29.99S
MOULTRIE       LGT RAIN  59  57  94 NE5       30.01F
BLAKELY        CLOUDY    63  52  67 NE3       30.01F
ALBANY         PTSUNNY   63  53  70 VRB6      29.99F
TIFTON         CLOUDY    55  55 100 NE7       30.02S
FITZGERALD     CLOUDY    56  50  82 E7        30.05F
CORDELE        CLOUDY    64  46  51 E7        30.04F
AMERICUS       PTSUNNY   59  41  51 E9        30.04F
HOMERVILLE     CLOUDY    55  54  94 NE8       30.01S
$$

!GMZ750-755-770-775-231700
...Coastal and Buoy Obs...

STATION/POSITION TIME  TEMP    WIND        PRES    VSBY  WAVE
                       AIR SEA DIR/SP/G                  HT/PER
                 (UTC) (F)     (DEG/KT/KT) (MB)    (MI)  (FT/S)
KEATON BEACH     1600   61      20/  6/  9 1013.4F
CEDAR KEY        1500   64      50/  9/ 13 1013.6R
C TOWER          1600   62      30/ 19/ 21 1014.3S
APALACHICOLA BUO 1550   69 75   40/ 19/ 23   N/A           7/ 7
PANAMA CITY BUOY 1450   67 76   20/ 16/ 19 1013.9          5/ 6
MOBILE BUOY      1550   63 77   10/ 14/ 17 1016.9F         5/ 6
ORANGE BCH AL BU NOT AVBL
$$




USA.gov is the U.S. government's official web portal to all federal, state and local government web resources and services.